�N����,����,����,����,����,�C��,���x,�~����,�S�V����,�ő�u�ԕ���,,,,,
,,,,,,,,,����,����,����,�N��,,
yyyy/mm/dd,hh:mm:ss,(16),16����,m/s,��,%,mm,KW/�u,(16),16����,m/s,Time,,
2020/3/1,1:00:00,14,�k��,1.6,-8.2,75.6,0,0,13,���k��,2.8,5,,
2020/3/1,2:00:00,14,�k��,0.8,-8,81.5,0,0,14,�k��,2.4,36,,
2020/3/1,3:00:00,14,�k��,2.9,-6.9,88.8,0,0,14,�k��,4.6,55,,
2020/3/1,4:00:00,14,�k��,2.5,-6.5,93.4,0,0,15,�k�k��,4.4,3,,
2020/3/1,5:00:00,14,�k��,2.5,-6.5,94.9,0,0,13,���k��,5.1,46,,
2020/3/1,6:00:00,15,�k�k��,2.6,-5.8,94.7,0,0,15,�k�k��,5.7,27,,
2020/3/1,7:00:00,15,�k�k��,2,-5.6,94.4,0,0.03,14,�k��,4.7,35,,
2020/3/1,8:00:00,15,�k�k��,2.1,-5.3,93.8,0,0.08,14,�k��,5,6,,
2020/3/1,9:00:00,14,�k��,3.6,-5.1,92.6,0,0.12,14,�k��,6.4,57,,
2020/3/1,10:00:00,14,�k��,4.7,-4.8,92.1,0,0.17,14,�k��,7.4,56,,
2020/3/1,11:00:00,14,�k��,4.3,-4,85,0,0.32,14,�k��,7.9,16,,
2020/3/1,12:00:00,15,�k�k��,2.3,-2.8,82.6,0,0.39,14,�k��,6.4,1,,
2020/3/1,13:00:00,15,�k�k��,2.5,-3,86.2,0,0.35,16,�k,4.9,12,,
2020/3/1,14:00:00,15,�k�k��,1.6,-2.2,89.3,0,0.35,14,�k��,3.9,36,,
2020/3/1,15:00:00,2,�k��,1.7,-1.9,92,0,0.27,2,�k��,2.7,55,,
2020/3/1,16:00:00,2,�k��,1.9,-2.1,91.4,0,0.18,2,�k��,4,10,,
2020/3/1,17:00:00,3,���k��,1.8,-3.9,94.9,1.5,0.07,3,���k��,4,28,,
2020/3/1,18:00:00,3,���k��,1.4,-5.5,97.5,0,0.01,3,���k��,3,2,,
2020/3/1,19:00:00,1,�k�k��,1.2,-4.4,98.1,0.5,0,2,�k��,2.5,13,,
2020/3/1,20:00:00,15,�k�k��,0.5,-7.2,97.8,0,0,2,�k��,2.8,16,,
2020/3/1,21:00:00,14,�k��,1.2,-12.6,93.9,0,0,15,�k�k��,1.8,16,,
2020/3/1,22:00:00,13,���k��,1.3,-8.2,96.6,0,0,13,���k��,2.2,48,,
2020/3/1,23:00:00,14,�k��,0.7,-7.7,96.6,0,0,12,��,2.3,36,,
2020/3/1,0:00:00,13,���k��,1.3,-6.8,97.3,0,0,12,��,2.4,20,,
2020/3/2,1:00:00,15,�k�k��,0.4,-6,98.1,0,0,14,�k��,2,16,,
2020/3/2,2:00:00,3,���k��,1.1,-5.6,98.3,0,0,2,�k��,2.6,19,,
2020/3/2,3:00:00,1,�k�k��,1.2,-6.1,98.2,0,0,16,�k,2.3,34,,
2020/3/2,4:00:00,14,�k��,1.9,-5.5,97.7,0,0,14,�k��,2.7,56,,
2020/3/2,5:00:00,16,�É�,0.2,-5.5,95.7,0,0,14,�k��,2.6,8,,
2020/3/2,6:00:00,14,�k��,1.1,-5.5,96.9,0,0,14,�k��,2,9,,
2020/3/2,7:00:00,13,���k��,0.6,-5.2,94,0,0.04,14,�k��,2.4,31,,
2020/3/2,8:00:00,2,�k��,1.3,-3.7,84.5,0,0.13,1,�k�k��,2.3,51,,
2020/3/2,9:00:00,2,�k��,1.6,-3.1,82.6,0,0.23,2,�k��,2.9,34,,
2020/3/2,10:00:00,2,�k��,2.4,-2.6,81.8,0,0.37,2,�k��,4.2,57,,
2020/3/2,11:00:00,2,�k��,3.3,-2.2,79.2,0.5,0.53,3,���k��,5,31,,
2020/3/2,12:00:00,2,�k��,2.8,-1.7,78.6,0,0.47,2,�k��,4.5,13,,
2020/3/2,13:00:00,3,���k��,2.5,-1.4,80,0,0.32,3,���k��,4.5,18,,
2020/3/2,14:00:00,2,�k��,2.5,-1.3,77.2,0.5,0.21,3,���k��,5,22,,
2020/3/2,15:00:00,3,���k��,2.5,-1.5,74.1,0,0.14,3,���k��,4.6,20,,
2020/3/2,16:00:00,1,�k�k��,1.1,-1.4,75.5,0,0.09,2,�k��,3.4,22,,
2020/3/2,17:00:00,2,�k��,0.8,-2.2,80.4,0.5,0.03,1,�k�k��,2,7,,
2020/3/2,18:00:00,16,�k,0.7,-2.6,90,0,0.01,1,�k�k��,2,33,,
2020/3/2,19:00:00,14,�k��,2.1,-2.4,91.9,0,0,14,�k��,3.3,57,,
2020/3/2,20:00:00,14,�k��,2.1,-2.4,90.7,0,0,14,�k��,3.3,48,,
2020/3/2,21:00:00,14,�k��,1.1,-2.3,91.5,0,0,15,�k�k��,3.4,14,,
2020/3/2,22:00:00,2,�k��,2.9,-2.4,91.5,0,0,2,�k��,5.1,55,,
2020/3/2,23:00:00,16,�k,2.2,-2.5,88.7,0,0,3,���k��,5.7,3,,
2020/3/2,0:00:00,16,�k,1.5,-3,93.5,0,0,16,�k,3.7,9,,
2020/3/3,1:00:00,13,���k��,0.9,-3.3,97.8,0,0,16,�k,2.6,40,,
2020/3/3,2:00:00,15,�k�k��,0.5,-3.5,98.2,0.5,0,16,�k,1.9,34,,
2020/3/3,3:00:00,1,�k�k��,0.7,-3.7,97.5,0,0,16,�k,1.6,34,,
2020/3/3,4:00:00,1,�k�k��,2.4,-3.4,93.6,0,0,16,�k,4.1,54,,
2020/3/3,5:00:00,1,�k�k��,1.7,-3.5,93.4,0,0,1,�k�k��,4.4,2,,
2020/3/3,6:00:00,14,�k��,2.2,-3.7,95.5,0,0,15,�k�k��,4,56,,
2020/3/3,7:00:00,14,�k��,2.6,-3.4,93.2,0,0.02,16,�k,4.6,30,,
2020/3/3,8:00:00,14,�k��,2.3,-3,91.7,0,0.08,15,�k�k��,4.3,15,,
2020/3/3,9:00:00,14,�k��,3.1,-1.9,80.7,0,0.3,15,�k�k��,5,43,,
2020/3/3,10:00:00,14,�k��,2.6,-1,74.2,0,0.55,15,�k�k��,4.9,21,,
2020/3/3,11:00:00,14,�k��,2.1,-0.6,75.6,0,0.48,14,�k��,5,27,,
2020/3/3,12:00:00,14,�k��,2,-0.2,70.4,1,0.52,14,�k��,4.9,36,,
2020/3/3,13:00:00,14,�k��,1.8,0.6,69.9,1.5,0.53,13,���k��,4.2,1,,
2020/3/3,14:00:00,13,���k��,2.4,0.6,74,1.5,0.47,14,�k��,3.6,57,,
2020/3/3,15:00:00,15,�k�k��,2.5,-0.4,83.7,0.5,0.37,13,���k��,4.3,1,,
2020/3/3,16:00:00,14,�k��,2.3,-0.5,86.7,0,0.17,14,�k��,4.5,15,,
2020/3/3,17:00:00,14,�k��,2.6,-0.8,86.3,0,0.05,14,�k��,5,49,,
2020/3/3,18:00:00,14,�k��,2.1,-0.6,82.8,0,0.01,14,�k��,4.8,14,,
2020/3/3,19:00:00,15,�k�k��,1.8,-0.8,76.7,0,0,15,�k�k��,4,26,,
2020/3/3,20:00:00,16,�k,1.9,-1.5,74.8,0,0,16,�k,5,26,,
2020/3/3,21:00:00,15,�k�k��,1.4,-2.7,74.6,0,0,16,�k,3.3,4,,
2020/3/3,22:00:00,15,�k�k��,1.7,-3.4,76.2,0,0,16,�k,4.4,35,,
2020/3/3,23:00:00,14,�k��,1.6,-4.6,78.1,0,0,15,�k�k��,3,3,,
2020/3/3,0:00:00,15,�k�k��,2.3,-5,81.3,0,0,16,�k,4.2,53,,
2020/3/4,1:00:00,14,�k��,2.4,-5.1,81,0,0,16,�k,4.1,25,,
2020/3/4,2:00:00,14,�k��,1.8,-4.9,81.8,0,0,14,�k��,3.5,54,,
2020/3/4,3:00:00,15,�k�k��,1.8,-5,80.9,0,0,16,�k,3.4,36,,
2020/3/4,4:00:00,16,�k,1.6,-5.1,83.2,0,0,16,�k,3,39,,
2020/3/4,5:00:00,14,�k��,1.7,-6.8,83.1,0,0,14,�k��,2.8,50,,
2020/3/4,6:00:00,15,�k�k��,1.7,-5.6,83.3,0,0.01,15,�k�k��,3.1,50,,
2020/3/4,7:00:00,14,�k��,2.1,-5.1,78.8,0,0.09,15,�k�k��,3.8,55,,
2020/3/4,8:00:00,15,�k�k��,2.7,-3.3,65,0,0.29,15,�k�k��,5.6,55,,
2020/3/4,9:00:00,14,�k��,2.5,-1.9,61.8,0,0.51,14,�k��,5.1,38,,
2020/3/4,10:00:00,13,���k��,2.8,-1.1,59.7,0,0.66,15,�k�k��,5.6,8,,
2020/3/4,11:00:00,5,���쓌,1.9,0.3,62.7,0,0.75,5,���쓌,3.8,57,,
2020/3/4,12:00:00,5,���쓌,2.5,-0.3,56.7,0,0.8,6,�쓌,3.9,35,,
2020/3/4,13:00:00,5,���쓌,1.8,0.7,65.1,0,0.79,5,���쓌,2.7,53,,
2020/3/4,14:00:00,3,���k��,1,1.8,67.4,0,0.67,4,��,2.4,0,,
2020/3/4,15:00:00,5,���쓌,2.8,-0.4,72.5,0,0.52,5,���쓌,3.8,54,,
2020/3/4,16:00:00,4,��,2.7,-0.7,80.2,0,0.18,4,��,4.7,21,,
2020/3/4,17:00:00,3,���k��,1.5,-1,82.3,0,0.06,3,���k��,3.7,18,,
2020/3/4,18:00:00,2,�k��,0.8,-1,80.7,0,0.01,1,�k�k��,2.7,22,,
2020/3/4,19:00:00,2,�k��,2.1,-1.1,86.1,0,0,2,�k��,4.4,9,,
2020/3/4,20:00:00,16,�k,1.7,-1.3,91.8,0,0,1,�k�k��,4.7,21,,
2020/3/4,21:00:00,14,�k��,1.2,-1.8,96.9,0,0,16,�k,2.3,4,,
2020/3/4,22:00:00,14,�k��,2.2,-1.9,98.5,0,0,14,�k��,4,56,,
2020/3/4,23:00:00,15,�k�k��,2.6,-2,98.9,0,0,14,�k��,5.2,50,,
2020/3/4,0:00:00,15,�k�k��,2.7,-2,98.8,0,0,15,�k�k��,5.1,39,,
2020/3/5,1:00:00,15,�k�k��,3.2,-2.1,98.8,0,0,15,�k�k��,5.7,3,,
2020/3/5,2:00:00,15,�k�k��,2.4,-1.9,99.4,0,0,15,�k�k��,4.5,7,,
2020/3/5,3:00:00,16,�k,3.4,-1.3,99.5,0,0,16,�k,7.2,39,,
2020/3/5,4:00:00,14,�k��,3.8,-2,98.8,0,0,2,�k��,7.1,11,,
2020/3/5,5:00:00,-2.1,#N/A,98.8,0,0,,,,,,,,
2020/3/5,6:00:00,16,�k,3.5,-0.7,99.9,0,0,15,�k�k��,7.3,2,,
2020/3/5,7:00:00,2,�k��,5.9,-1,99.7,0,0.01,2,�k��,10.9,42,,
2020/3/5,8:00:00,2,�k��,7.2,-1.1,100,0,0.03,2,�k��,12.2,27,,
2020/3/5,9:00:00,2,�k��,7.4,-1.1,100,0,0.08,3,���k��,13.2,57,,
2020/3/5,10:00:00,2,�k��,6.1,-1,100,0,0.14,2,�k��,12.3,22,,
2020/3/5,11:00:00,2,�k��,6,-1,100,0,0.15,2,�k��,13.3,25,,
2020/3/5,12:00:00,1,�k�k��,5.3,-0.9,100,0,0.15,1,�k�k��,10.5,1,,
2020/3/5,13:00:00,15,�k�k��,3.5,-0.5,100,0,0.13,14,�k��,8,49,,
2020/3/5,14:00:00,15,�k�k��,4.4,-0.7,100,0,0.11,15,�k�k��,8.7,46,,
2020/3/5,15:00:00,15,�k�k��,4.5,-0.6,100,0,0.09,15,�k�k��,9.4,15,,
2020/3/5,16:00:00,15,�k�k��,4.7,-0.6,100,0,0.05,14,�k��,8.8,35,,
2020/3/5,17:00:00,15,�k�k��,5.1,-0.5,100,0,0.02,16,�k,10.2,50,,
2020/3/5,18:00:00,15,�k�k��,6.2,-0.6,100,0,0.01,15,�k�k��,12.7,42,,
2020/3/5,19:00:00,15,�k�k��,7.9,-0.6,100,0.5,0,14,�k��,17.2,34,,
2020/3/5,20:00:00,15,�k�k��,6.1,-0.7,100,0.5,0,16,�k,15,44,,
2020/3/5,21:00:00,15,�k�k��,7.6,-0.7,100,0.5,0,15,�k�k��,13.7,46,,
2020/3/5,22:00:00,15,�k�k��,9,-1.3,100,0,0,16,�k,18.3,27,,
2020/3/5,23:00:00,15,�k�k��,7.7,-1.7,100,0.5,0,16,�k,15.7,8,,
2020/3/5,0:00:00,15,�k�k��,8.3,-2.2,100,0.5,0,15,�k�k��,16.4,29,,
2020/3/6,1:00:00,15,�k�k��,6.7,-2.2,100,0,0,15,�k�k��,16.3,19,,
2020/3/6,2:00:00,15,�k�k��,6.6,-2.4,100,0.5,0,15,�k�k��,12.8,32,,
2020/3/6,3:00:00,15,�k�k��,5.3,-2.8,100,0,0,16,�k,13.2,4,,
2020/3/6,4:00:00,15,�k�k��,4.4,-3.1,100,0,0,16,�k,12.1,17,,
2020/3/6,5:00:00,15,�k�k��,4.8,-3.6,100,0.5,0,14,�k��,11,45,,
2020/3/6,6:00:00,15,�k�k��,4.6,-3.5,100,0,0.01,14,�k��,9.7,6,,
2020/3/6,7:00:00,15,�k�k��,4.8,-3.3,100,0,0.04,15,�k�k��,10,44,,
2020/3/6,8:00:00,15,�k�k��,5.4,-2.9,100,0.5,0.11,15,�k�k��,10.6,35,,
2020/3/6,9:00:00,15,�k�k��,6.6,-2.4,100,0.5,0.25,15,�k�k��,12.4,54,,
2020/3/6,10:00:00,15,�k�k��,5.7,-1.6,100,0.5,0.45,15,�k�k��,11.6,9,,
2020/3/6,11:00:00,15,�k�k��,5.5,-0.4,100,1,0.76,15,�k�k��,10.7,37,,
2020/3/6,12:00:00,15,�k�k��,5.4,0.4,100,0.5,0.81,15,�k�k��,11.8,30,,
2020/3/6,13:00:00,15,�k�k��,5.2,1.2,100,0.5,0.79,15,�k�k��,10.8,23,,
2020/3/6,14:00:00,15,�k�k��,5.5,2.7,100,1.5,0.7,15,�k�k��,10.2,26,,
2020/3/6,15:00:00,15,�k�k��,4.6,3.5,100,2.5,0.56,16,�k,11.8,32,,
2020/3/6,16:00:00,16,�k,7.2,2.2,100,1,0.31,16,�k,12.5,47,,
2020/3/6,17:00:00,15,�k�k��,5.5,1.8,100,1,0.17,16,�k,13.1,9,,
2020/3/6,18:00:00,16,�k,2.7,1.1,100,0.5,0.01,16,�k,8.7,0,,
2020/3/6,19:00:00,1,�k�k��,3.4,-0.1,99.1,0.5,0,1,�k�k��,7,10,,
2020/3/6,20:00:00,1,�k�k��,2.2,-3,97.6,0,0,1,�k�k��,3.7,6,,
2020/3/6,21:00:00,2,�k��,0.7,-6.8,97.7,0,0,3,���k��,9.5,47,,
2020/3/6,22:00:00,13,���k��,1.9,-11,96.4,0.5,0,13,���k��,2.3,58,,
2020/3/6,23:00:00,14,�k��,2,-12.7,95.4,0,0,13,���k��,3.1,18,,
2020/3/6,0:00:00,14,�k��,1.4,-11.4,96,0,0,13,���k��,2.5,52,,
2020/3/7,1:00:00,14,�k��,1.5,-11.8,95.4,0,0,14,�k��,2.1,50,,
2020/3/7,2:00:00,13,���k��,1.5,-11.3,95.9,0,0,12,��,2.7,45,,
2020/3/7,3:00:00,13,���k��,1.9,-8.8,97,0,0,12,��,3.3,5,,
2020/3/7,4:00:00,14,�k��,2,-8.8,96.4,0,0,14,�k��,3.7,13,,
2020/3/7,5:00:00,14,�k��,2,-8.2,97.1,0,0,14,�k��,3.2,18,,
2020/3/7,6:00:00,14,�k��,1.3,-9.1,95.9,0,0.01,14,�k��,3,24,,
2020/3/7,7:00:00,13,���k��,2,-9.1,96.2,0,0.09,13,���k��,3,34,,
2020/3/7,8:00:00,13,���k��,2.1,-7.4,96.5,0,0.32,13,���k��,3.6,8,,
2020/3/7,9:00:00,11,���쐼,0.7,-3.1,96,0,0.54,13,���k��,2.9,1,,
2020/3/7,10:00:00,4,��,0.4,-0.4,89.8,0.5,0.7,4,��,17.3,59,,
2020/3/7,11:00:00,5,���쓌,3.7,-1.1,90.7,0,0.79,5,���쓌,4.8,57,,
2020/3/7,12:00:00,4,��,3.1,-0.3,87.4,1.5,0.83,4,��,4.8,3,,
2020/3/7,13:00:00,5,���쓌,3,-0.2,86.6,1,0.81,4,��,4.5,22,,
2020/3/7,14:00:00,7,��쓌,2.9,-0.5,88.5,1.5,0.72,7,��쓌,4.5,43,,
2020/3/7,15:00:00,7,��쓌,3,-1,88.9,0.5,0.57,7,��쓌,5.2,26,,
2020/3/7,16:00:00,8,��,2.1,-0.9,86.8,0,0.37,7,��쓌,4.1,11,,
2020/3/7,17:00:00,8,��,0.6,-2,88,0.5,0.15,8,��,3.8,15,,
2020/3/7,18:00:00,16,�É�,0.1,-7.1,94.2,0,0.01,12,��,3,53,,
2020/3/7,19:00:00,13,���k��,0.3,-8.5,96.6,0,0,12,��,1.8,49,,
2020/3/7,20:00:00,14,�k��,2.2,-9.8,95.4,0,0,14,�k��,2.9,54,,
2020/3/7,21:00:00,14,�k��,0.5,-12.3,92.4,0,0,14,�k��,3,7,,
2020/3/7,22:00:00,13,���k��,1.2,-9.4,93.2,0,0,14,�k��,2.8,38,,
2020/3/7,23:00:00,-11.9,#N/A,94,0,0,,,,,,,,
2020/3/7,0:00:00,14,�k��,2.3,-11.6,95.1,0,0,12,��,3.5,47,,
2020/3/8,1:00:00,14,�k��,2.2,-11.4,93.7,0,0,14,�k��,3.3,58,,
2020/3/8,2:00:00,14,�k��,2.9,-7.4,93.5,0,0,14,�k��,4.6,32,,
2020/3/8,3:00:00,15,�k�k��,2.5,-6.6,91.6,0,0,14,�k��,5,8,,
2020/3/8,4:00:00,14,�k��,2.6,-5.8,91.8,0,0,15,�k�k��,4.6,31,,
2020/3/8,5:00:00,14,�k��,1.3,-5.4,90.2,0,0,14,�k��,4.2,7,,
2020/3/8,6:00:00,14,�k��,0.9,-5.6,91.2,0,0,15,�k�k��,3,9,,
2020/3/8,7:00:00,12,��,1.7,-6,94.3,0,0.03,12,��,2.3,37,,
2020/3/8,8:00:00,14,�k��,0.7,-4,92.2,0,0.13,13,���k��,2.2,1,,
2020/3/8,9:00:00,-2.1,#N/A,84,0,0.31,,,,,,,,
2020/3/8,10:00:00,9,��쐼,0.3,0.7,79.1,0.5,0.63,9,��쐼,2.5,40,,
2020/3/8,11:00:00,5,���쓌,2.3,1.3,85.3,1.5,0.76,7,��쓌,5,21,,
2020/3/8,12:00:00,5,���쓌,2.1,1.9,87.8,0.5,0.78,5,���쓌,2.8,59,,
2020/3/8,13:00:00,5,���쓌,1.6,1.9,89.7,0.5,0.78,6,�쓌,3.2,24,,
2020/3/8,14:00:00,6,�쓌,1.9,2.3,87.8,0,0.69,5,���쓌,2.8,50,,
2020/3/8,15:00:00,5,���쓌,1.2,3,91.2,0,0.54,2,�k��,2.3,31,,
2020/3/8,16:00:00,2,�k��,1.1,1.4,89.5,0,0.31,6,�쓌,2.5,3,,
2020/3/8,17:00:00,5,���쓌,0.3,0.5,93.1,0,0.14,5,���쓌,2.2,49,,
2020/3/8,18:00:00,3,���k��,0.3,-1,95.3,0,0.01,8,��,1.4,17,,
2020/3/8,19:00:00,13,���k��,1.2,-4.5,98,0,0,1,�k�k��,6.7,5,,
2020/3/8,20:00:00,13,���k��,0.9,-6.3,97.5,0,0,13,���k��,2,0,,
2020/3/8,21:00:00,12,��,0.7,-4,99.2,0,0,14,�k��,3.7,36,,
2020/3/8,22:00:00,13,���k��,1.4,-5.8,99.5,0,0,12,��,2.6,44,,
2020/3/8,23:00:00,12,��,1.7,-6.3,98.1,0,0,12,��,2.4,52,,
2020/3/8,0:00:00,13,���k��,2.1,-9,96.3,0,0,13,���k��,2.9,55,,
2020/3/9,1:00:00,14,�k��,1.7,-8.1,96.2,0,0,14,�k��,3.3,30,,
2020/3/9,2:00:00,13,���k��,1.3,-9.9,94.5,0,0,13,���k��,3.2,29,,
2020/3/9,3:00:00,13,���k��,2,-7.4,97.5,0,0,13,���k��,2.8,59,,
2020/3/9,4:00:00,12,��,1.8,-6.2,97.9,0,0,14,�k��,3.1,5,,
2020/3/9,5:00:00,13,���k��,2.2,-6.5,97.9,0,0,13,���k��,3.3,54,,
2020/3/9,6:00:00,14,�k��,1.6,-4.1,98.2,0,0,12,��,3.1,6,,
2020/3/9,7:00:00,14,�k��,2.3,-1.5,95.6,0,0.05,14,�k��,3.7,55,,
2020/3/9,8:00:00,16,�É�,0.1,0.3,91.2,0,0.13,14,�k��,2.5,22,,
2020/3/9,9:00:00,6,�쓌,1.8,0.7,92.6,0,0.22,6,�쓌,2.5,54,,
2020/3/9,10:00:00,2,�k��,0.5,1.7,91.4,0,0.34,10,�쐼,3.4,28,,
2020/3/9,11:00:00,2,�k��,1.3,3,90.5,0,0.47,4,��,2.8,20,,
2020/3/9,12:00:00,3,���k��,0.5,4.5,91.7,0,0.68,3,���k��,2.5,41,,
2020/3/9,13:00:00,2,�k��,1.2,3.9,94.4,0,0.55,2,�k��,2.4,46,,
2020/3/9,14:00:00,7,��쓌,1.6,4,97.8,0,0.6,7,��쓌,2.8,45,,
2020/3/9,15:00:00,4,��,1.8,3.4,98.3,0,0.48,5,���쓌,2.7,56,,
2020/3/9,16:00:00,5,���쓌,0.8,4.2,99.2,0,0.38,5,���쓌,2.4,0,,
2020/3/9,17:00:00,16,�É�,0,2.8,95.7,0,0.19,9,��쐼,2.4,32,,
2020/3/9,18:00:00,12,��,1.4,1.9,99.3,0,0.02,13,���k��,2.1,54,,
2020/3/9,19:00:00,1,�k�k��,1.2,1.6,100,0,0,12,��,2.5,38,,
2020/3/9,20:00:00,13,���k��,0.8,0.9,99.9,0,0,6,�쓌,3.2,26,,
2020/3/9,21:00:00,16,�É�,0.1,1.4,96.7,0,0,14,�k��,2.9,34,,
2020/3/9,22:00:00,9,��쐼,0.8,1.3,99.2,0,0,7,��쓌,5.7,37,,
2020/3/9,23:00:00,1,�k�k��,1.6,-0.7,99.7,0,0,16,�k,3,58,,
2020/3/9,0:00:00,11,���쐼,1.1,-1.9,99.9,0,0,15,�k�k��,2.8,2,,
2020/3/10,1:00:00,13,���k��,2.2,-1,100,0,0,14,�k��,3.3,43,,
2020/3/10,2:00:00,12,��,1.5,-1.5,100,0,0,15,�k�k��,2.7,40,,
2020/3/10,3:00:00,14,�k��,1.6,1.3,97.9,0,0,14,�k��,3.2,58,,
2020/3/10,4:00:00,12,��,0.4,-0.2,97.8,0,0,14,�k��,2.9,1,,
2020/3/10,5:00:00,13,���k��,0.6,0.3,99.4,0,0,1,�k�k��,8.5,15,,
2020/3/10,6:00:00,13,���k��,2.1,0.7,99.2,0,0,13,���k��,2.5,57,,
2020/3/10,7:00:00,16,�k,0.7,1.2,96.9,0,0.04,13,���k��,2.4,26,,
2020/3/10,8:00:00,14,�k��,0.4,1.1,97.6,0,0.11,3,���k��,2.5,28,,
2020/3/10,9:00:00,16,�É�,0,1.9,98.8,0,0.16,12,��,3.4,3,,
2020/3/10,10:00:00,14,�k��,2.1,3.4,98.5,2,0.19,13,���k��,3.4,45,,
2020/3/10,11:00:00,13,���k��,2.4,3.3,98.6,2,0.21,14,�k��,3.9,13,,
2020/3/10,12:00:00,14,�k��,2.2,3.9,99.4,1.5,0.24,14,�k��,3,55,,
2020/3/10,13:00:00,13,���k��,2,2.8,99.8,1.5,0.16,14,�k��,3.7,30,,
2020/3/10,14:00:00,1,�k�k��,1.3,3.8,99.7,2.5,0.1,15,�k�k��,4.8,44,,
2020/3/10,15:00:00,1,�k�k��,0.8,4.4,100,2.5,0.09,15,�k�k��,2.1,40,,
2020/3/10,16:00:00,15,�k�k��,0.6,1.9,100,2.5,0.06,1,�k�k��,1.8,21,,
2020/3/10,17:00:00,14,�k��,2.2,2.6,100,3.5,0.02,14,�k��,3,58,,
2020/3/10,18:00:00,15,�k�k��,1.5,2.3,100,1.5,0.01,14,�k��,3.6,1,,
2020/3/10,19:00:00,14,�k��,2.5,2.9,100,3.5,0,14,�k��,4.4,29,,
2020/3/10,20:00:00,14,�k��,3.7,2.9,100,4.5,0,14,�k��,6.3,44,,
2020/3/10,21:00:00,14,�k��,2.9,2.8,100,3,0,14,�k��,5.5,13,,
2020/3/10,22:00:00,14,�k��,2.9,2.7,100,4,0,13,���k��,5.1,3,,
2020/3/10,23:00:00,14,�k��,3.8,2.9,100,3.5,0,14,�k��,5.8,54,,
2020/3/10,0:00:00,14,�k��,1.6,2.7,100,1.5,0,15,�k�k��,5.3,5,,
2020/3/11,1:00:00,13,���k��,2.9,2.6,100,1,0,15,�k�k��,5.5,57,,
2020/3/11,2:00:00,14,�k��,2.9,2.2,100,0.5,0,12,��,5.5,0,,
2020/3/11,3:00:00,14,�k��,0.8,2.2,100,0.5,0,15,�k�k��,3.3,36,,
2020/3/11,4:00:00,3,���k��,1.2,1.8,100,0,0,5,���쓌,2.3,44,,
2020/3/11,5:00:00,13,���k��,1.9,1.7,100,0,0,13,���k��,3.3,58,,
2020/3/11,6:00:00,13,���k��,2.5,2.4,100,0,0.01,14,�k��,4,58,,
2020/3/11,7:00:00,8,��,0.3,2.5,100,0,0.1,14,�k��,4.1,4,,
2020/3/11,8:00:00,10,�쐼,6.1,8.1,98.4,0,0.26,9,��쐼,10,59,,
2020/3/11,9:00:00,11,���쐼,10.4,7.6,73.9,0,0.54,11,���쐼,19.1,26,,
2020/3/11,10:00:00,11,���쐼,13,7.7,67.2,0.5,0.69,11,���쐼,21.7,45,,
2020/3/11,11:00:00,11,���쐼,6.3,7,62.4,0,0.75,11,���쐼,18.8,1,,
2020/3/11,12:00:00,12,��,9,7.8,58.3,0,0.85,11,���쐼,15.5,18,,
2020/3/11,13:00:00,12,��,7.9,7.4,53.9,0,0.84,13,���k��,14.6,16,,
2020/3/11,14:00:00,11,���쐼,7.5,6.9,55.8,0,0.72,11,���쐼,12.5,11,,
2020/3/11,15:00:00,13,���k��,5.5,6.2,52,0,0.6,11,���쐼,10.9,24,,
2020/3/11,16:00:00,13,���k��,4,5.7,55.2,0,0.41,12,��,10.7,16,,
2020/3/11,17:00:00,16,�k,2.2,4.5,59.9,0,0.17,11,���쐼,6.4,20,,
2020/3/11,18:00:00,14,�k��,2.1,4,57.9,0,0.02,15,�k�k��,5.2,33,,
2020/3/11,19:00:00,12,��,4,3.5,61.8,0,0,12,��,6.6,54,,
2020/3/11,20:00:00,11,���쐼,5.1,3.4,62.5,0,0,12,��,10.2,27,,
2020/3/11,21:00:00,12,��,5.9,4.1,63,0,0,12,��,8.8,50,,
2020/3/11,22:00:00,12,��,4.1,3.4,69.1,0,0,11,���쐼,11.3,7,,
2020/3/11,23:00:00,11,���쐼,4.3,2.1,80.6,0,0,12,��,7.7,12,,
2020/3/11,0:00:00,15,�k�k��,1.2,0.9,82.6,0,0,10,�쐼,5.9,2,,
2020/3/12,1:00:00,11,���쐼,0.9,-3.3,92.5,0,0,15,�k�k��,2.1,5,,
2020/3/12,2:00:00,14,�k��,1.4,-2.6,90.9,0,0,14,�k��,2.5,47,,
2020/3/12,3:00:00,14,�k��,2.3,0.6,78,0,0,13,���k��,3.8,57,,
2020/3/12,4:00:00,14,�k��,4,0.9,72.1,0,0,14,�k��,6.8,30,,
2020/3/12,5:00:00,14,�k��,3.1,0.4,70.4,0,0,14,�k��,6.9,7,,
2020/3/12,6:00:00,9,��쐼,1,-0.9,76.7,0,0.01,14,�k��,4.6,12,,
2020/3/12,7:00:00,9,��쐼,0.7,-1,76.7,0,0.07,13,���k��,2.4,20,,
2020/3/12,8:00:00,12,��,1.9,0.6,73.3,0,0.25,13,���k��,2.6,57,,
2020/3/12,9:00:00,13,���k��,2.5,2.6,60,0,0.51,12,��,3.7,56,,
2020/3/12,10:00:00,9,��쐼,0.6,3.8,60.4,0,0.59,12,��,2.9,14,,
2020/3/12,11:00:00,3,���k��,0.6,5.8,59.5,0,0.6,8,��,4.5,25,,
2020/3/12,12:00:00,12,��,3,4.1,45.7,0,0.89,12,��,5.5,59,,
2020/3/12,13:00:00,2,�k��,2.4,4.7,61.4,0,0.85,12,��,4.7,0,,
2020/3/12,14:00:00,3,���k��,3.1,4.9,55,0,0.72,3,���k��,5.9,0,,
2020/3/12,15:00:00,4,��,3.3,3.8,66.9,0,0.59,3,���k��,5.7,39,,
2020/3/12,16:00:00,4,��,2.5,3.7,64,0,0.4,4,��,5.8,0,,
2020/3/12,17:00:00,3,���k��,2,2.3,66.5,0,0.18,4,��,5,9,,
2020/3/12,18:00:00,1,�k�k��,0.9,0.4,79.3,0,0.02,4,��,2.1,1,,
2020/3/12,19:00:00,7,��쓌,0.7,-2.4,85.3,0,0,11,���쐼,2.5,17,,
2020/3/12,20:00:00,10,�쐼,2.7,1.1,59.9,0,0,9,��쐼,5.1,34,,
2020/3/12,21:00:00,8,��,1.6,-1.3,67.8,0,0,10,�쐼,3.5,1,,
2020/3/12,22:00:00,8,��,0.9,-3.6,73,0,0,9,��쐼,3.3,16,,
2020/3/12,23:00:00,8,��,3,2.3,73.2,0,0,7,��쓌,5.4,59,,
2020/3/12,0:00:00,9,��쐼,4.3,4.5,66.9,0,0,8,��,9,58,,
2020/3/13,1:00:00,7,��쓌,3.5,4.5,69.9,0,0,8,��,7.1,6,,
2020/3/13,2:00:00,8,��,1.9,3.6,75.8,0,0,6,�쓌,7.3,40,,
2020/3/13,3:00:00,9,��쐼,3.5,5.9,66.1,0,0,10,�쐼,11.1,27,,
2020/3/13,4:00:00,8,��,2.8,4.7,72,0,0,8,��,9.6,16,,
2020/3/13,5:00:00,11,���쐼,8.1,5.2,73.1,0,0,10,�쐼,14.5,54,,
2020/3/13,6:00:00,10,�쐼,8.1,5.7,67.5,0,0.01,11,���쐼,14.5,0,,
2020/3/13,7:00:00,10,�쐼,6.3,6.2,57.4,0,0.13,10,�쐼,14.6,29,,
2020/3/13,8:00:00,10,�쐼,7.3,6.7,55.4,0,0.35,11,���쐼,15,56,,
2020/3/13,9:00:00,10,�쐼,6.7,7,55.3,0,0.5,8,��,12.8,43,,
2020/3/13,10:00:00,10,�쐼,6.2,5.6,73.8,0,0.16,10,�쐼,14.8,9,,
2020/3/13,11:00:00,9,��쐼,3.9,4.2,88.7,0.5,0.21,11,���쐼,9.6,9,,
2020/3/13,12:00:00,9,��쐼,2.7,4,86.7,0,0.19,9,��쐼,7.2,9,,
2020/3/13,13:00:00,11,���쐼,6.2,4.6,67.6,0,0.38,11,���쐼,9.3,45,,
2020/3/13,14:00:00,11,���쐼,9,5,52.2,0,0.62,11,���쐼,14.3,53,,
2020/3/13,15:00:00,11,���쐼,9.5,4.6,47.1,0.5,0.56,12,��,18,49,,
2020/3/13,16:00:00,12,��,10.5,3.7,43,0,0.41,11,���쐼,17.2,12,,
2020/3/13,17:00:00,12,��,8.3,2.1,42.8,0,0.19,12,��,13.4,9,,
2020/3/13,18:00:00,12,��,3,0.5,58.8,0,0.02,12,��,11.6,0,,
2020/3/13,19:00:00,2,�k��,2.2,-2.3,65.9,0,0,12,��,4.9,7,,
2020/3/13,20:00:00,1,�k�k��,2.1,-2.7,61.3,0,0,1,�k�k��,4.8,22,,
2020/3/13,21:00:00,1,�k�k��,1.4,-4.1,65.2,0,0,11,���쐼,3.9,31,,
2020/3/13,22:00:00,2,�k��,0.4,-4.8,65.9,0,0,1,�k�k��,2,0,,
2020/3/13,23:00:00,3,���k��,1.7,-6.7,71.8,0,0,3,���k��,3,39,,
2020/3/13,0:00:00,14,�k��,0.8,-9.5,82.5,0,0,2,�k��,2.4,0,,
2020/3/14,1:00:00,13,���k��,2,-10.4,90.1,0,0,13,���k��,2.6,53,,
2020/3/14,2:00:00,13,���k��,1.5,-10,84.1,0,0,13,���k��,3,16,,
2020/3/14,3:00:00,11,���쐼,1.6,-8.6,79.7,0,0,14,�k��,3.6,20,,
2020/3/14,4:00:00,13,���k��,2.9,-9.3,83.1,0,0,13,���k��,4.1,59,,
2020/3/14,5:00:00,13,���k��,2.5,-9.6,80.2,0,0,13,���k��,4.2,1,,
2020/3/14,6:00:00,13,���k��,2,-9.4,82,0,0.01,13,���k��,3.5,36,,
2020/3/14,7:00:00,13,���k��,1.4,-8.1,77.4,0,0.16,13,���k��,3.3,24,,
2020/3/14,8:00:00,9,��쐼,0.6,-1.5,60.1,0,0.38,13,���k��,3.1,10,,
2020/3/14,9:00:00,16,�É�,0.2,1,54.7,0,0.59,4,��,7,58,,
2020/3/14,10:00:00,7,��쓌,2.2,0.3,54.7,0,0.73,6,�쓌,4.3,37,,
2020/3/14,11:00:00,5,���쓌,2.5,0.8,52.7,0,0.83,5,���쓌,5,10,,
2020/3/14,12:00:00,4,��,3.8,1.4,62.6,0,0.87,5,���쓌,5.5,53,,
2020/3/14,13:00:00,4,��,3.6,1.7,62.6,0,0.84,4,��,5.6,50,,
2020/3/14,14:00:00,3,���k��,3.1,1.2,60.1,0,0.75,4,��,5.2,27,,
2020/3/14,15:00:00,3,���k��,4,0.8,60.7,0,0.6,2,�k��,5.9,51,,
2020/3/14,16:00:00,2,�k��,3,0.5,63.7,0,0.41,2,�k��,5.6,14,,
2020/3/14,17:00:00,2,�k��,3,-0.5,64.8,0,0.19,2,�k��,4.6,35,,
2020/3/14,18:00:00,2,�k��,2.5,-1.6,72.2,0,0.02,2,�k��,4.4,3,,
2020/3/14,19:00:00,12,��,1,-4.7,85.7,0,0,2,�k��,3.2,0,,
2020/3/14,20:00:00,15,�k�k��,1.5,-3.7,80.1,0,0,14,�k��,2.9,44,,
2020/3/14,21:00:00,14,�k��,2,-3.7,79,0,0,14,�k��,3,10,,
2020/3/14,22:00:00,14,�k��,2,-6.3,87,0,0,14,�k��,2.8,44,,
2020/3/14,23:00:00,14,�k��,2.5,-5.1,87.9,0,0,13,���k��,3.4,57,,
2020/3/14,0:00:00,14,�k��,2.4,-5.2,83.7,0,0,13,���k��,4.1,1,,
2020/3/15,1:00:00,14,�k��,2.5,-5.7,81.2,0,0,14,�k��,5.4,28,,
2020/3/15,2:00:00,14,�k��,2.7,-5.6,80,0,0,14,�k��,4.2,57,,
2020/3/15,3:00:00,14,�k��,4,-5.9,78.7,0,0,13,���k��,5.6,59,,
2020/3/15,4:00:00,14,�k��,3,-5.1,77,0,0,14,�k��,6.6,15,,
2020/3/15,5:00:00,14,�k��,4.1,-5.5,75.6,0,0,14,�k��,6.8,39,,
2020/3/15,6:00:00,15,�k�k��,1,-6.1,76.5,0,0.01,14,�k��,6.1,22,,
2020/3/15,7:00:00,16,�k,0.5,-5.1,71,0,0.14,14,�k��,3.1,19,,
2020/3/15,8:00:00,1,�k�k��,1.7,-2.5,66.9,0,0.38,16,�k,3.4,54,,
2020/3/15,9:00:00,14,�k��,2.5,-1.2,53.8,0,0.58,15,�k�k��,4.5,23,,
2020/3/15,10:00:00,4,��,0.7,3,54.4,0,0.75,13,���k��,3.3,3,,
2020/3/15,11:00:00,4,��,2.1,3.5,58.2,0,0.86,2,�k��,4.3,29,,
2020/3/15,12:00:00,7,��쓌,2.7,1.1,65.2,0,0.83,6,�쓌,4.9,37,,
2020/3/15,13:00:00,7,��쓌,2.5,1.1,64,0,0.86,6,�쓌,4.9,14,,
2020/3/15,14:00:00,8,��,3.5,1.1,66.4,0,0.71,8,��,5.4,58,,
2020/3/15,15:00:00,8,��,3.2,0.9,68.1,0,0.39,8,��,6.6,11,,
2020/3/15,16:00:00,8,��,1.9,2,68.1,0,0.41,8,��,5.4,1,,
2020/3/15,17:00:00,10,�쐼,2.4,0.5,77.9,0,0.19,8,��,6.2,8,,
2020/3/15,18:00:00,12,��,1.1,-0.9,85.6,0,0.02,10,�쐼,4.8,15,,
2020/3/15,19:00:00,1,�k�k��,0.6,-2.7,92,0,0,16,�k,2.9,32,,
2020/3/15,20:00:00,13,���k��,0.7,-6.2,92.9,0,0,14,�k��,2.7,5,,
2020/3/15,21:00:00,14,�k��,2,-4.5,93.1,0,0,14,�k��,3.1,20,,
2020/3/15,22:00:00,14,�k��,1.5,-6.6,95.5,0,0,14,�k��,3.3,2,,
2020/3/15,23:00:00,14,�k��,1.5,-4.5,94.3,0,0,13,���k��,2.6,27,,
2020/3/15,0:00:00,14,�k��,0.4,-6,96,0,0,10,�쐼,2.8,33,,
2020/3/16,1:00:00,14,�k��,1.1,-8.2,95.2,0,0,14,�k��,2.5,45,,
2020/3/16,2:00:00,12,��,1.4,-6.8,92,0,0,12,��,2.9,23,,
2020/3/16,3:00:00,13,���k��,1.3,-7.3,91,0,0,14,�k��,2.1,33,,
2020/3/16,4:00:00,14,�k��,1.3,-6.6,91.3,0,0,14,�k��,2.2,51,,
2020/3/16,5:00:00,14,�k��,1.8,-4.5,85.2,0,0,14,�k��,2.5,53,,
2020/3/16,6:00:00,14,�k��,1.5,-4.8,86.3,0,0.01,14,�k��,2.8,37,,
2020/3/16,7:00:00,14,�k��,0.8,-3.3,81.7,0,0.08,14,�k��,2.9,12,,
2020/3/16,8:00:00,1,�k�k��,2.3,-1.9,76.3,0,0.18,2,�k��,3.8,59,,
2020/3/16,9:00:00,2,�k��,2.9,-2.3,83.7,0,0.23,3,���k��,5,35,,
2020/3/16,10:00:00,2,�k��,2.5,-2.1,87.7,0,0.3,2,�k��,3.5,52,,
2020/3/16,11:00:00,2,�k��,2.5,-2.4,89.9,0,0.27,2,�k��,3.6,27,,
2020/3/16,12:00:00,2,�k��,2.2,-2.3,94,0,0.28,2,�k��,3.8,15,,
2020/3/16,13:00:00,1,�k�k��,2.2,-1.7,92.1,0.5,0.33,16,�k,3.5,18,,
2020/3/16,14:00:00,4,��,1.6,-1.2,92,0,0.4,3,���k��,3,46,,
2020/3/16,15:00:00,4,��,2.9,-1.4,93.4,0,0.31,4,��,4.4,29,,
2020/3/16,16:00:00,4,��,3,-1.8,94.3,0.5,0.22,4,��,4.5,16,,
2020/3/16,17:00:00,4,��,2.9,-1.9,94.4,0,0.1,4,��,4.2,17,,
2020/3/16,18:00:00,5,���쓌,2.1,-2,96.6,0,0.02,5,���쓌,3.4,59,,
2020/3/16,19:00:00,3,���k��,1.8,-2.1,96.4,0,0,4,��,3.2,5,,
2020/3/16,20:00:00,16,�k,0.4,-2.3,98.2,0,0,3,���k��,2,0,,
2020/3/16,21:00:00,14,�k��,1.2,-2.4,99,0,0,14,�k��,1.8,38,,
2020/3/16,22:00:00,16,�É�,0.1,-3.5,99.9,0,0,13,���k��,1.7,4,,
2020/3/16,23:00:00,14,�k��,1.1,-10.1,96.6,0,0,12,��,3.4,25,,
2020/3/16,0:00:00,12,��,1.5,-9.2,96.2,0,0,13,���k��,2.1,59,,